Weather History for Beaver Island, MI

Change the Weather History Date:

Saturday, November 5, 2011

  Actual Average Record
Temperature  
Mean Temperature 42 °F -  
Max Temperature 50 °F 45 °F 68 °F (2008)
Min Temperature 33 °F 33 °F 22 °F (1967)
Degree Days  
Heating Degree Days 24    
Moisture  
Dew Point 34 °F    
Average Humidity 71    
Maximum Humidity 93    
Minimum Humidity 50    
Precipitation  
Precipitation 0.00 in - - ()
Sea Level Pressure  
Sea Level Pressure 30.24 in    
Wind  
Wind Speed 7 mph (SSE)    
Max Wind Speed 15 mph    
Max Gust Speed 21 mph    
Visibility 10 miles    
Events      
Averages and records for this station are not official NWS values.
T = Trace of Precipitation, MM = Missing Value Source: NWS Daily Summary

Daily Weather History Graph

Daily Weather History Graph

Search for Another Location

Airport:

Trip Planner

Search our weather history database for the weather conditions in past years. The results will help you decide how hot, cold, wet, or windy it might be!

Date:

Astronomy

Nov. 05, 2011 Rise Set
Actual Time 8:27 AM EDT 6:23 PM EDT
Civil Twilight 7:56 AM EDT 6:54 PM EDT
Nautical Twilight 7:20 AM EDT 7:30 PM EDT
Astronomical Twilight 6:46 AM EDT 8:04 PM EDT
Moon 3:53 PM EDT (11/5) 3:23 AM EDT (11/5)
Length of Visible Light 10h 58m
Length of Day
9h 56m
Waxing Gibbous, 78% of the Moon is Illuminated
Nov 5
Waxing Gibbous
Nov 10
Full
Nov 18
Last Quarter
Nov 25
New
Dec 2
First Quarter

Hourly Weather History & Observations

Time (EDT) Temp. Windchill Dew Point Humidity Pressure Visibility Wind Dir Wind Speed Gust Speed Precip Events Conditions
12:15 AM 37.4 °F 33.8 °F 35.6 °F 93% 30.29 in 10.0 mi SE 4.6 mph - N/A   Clear
12:55 AM 37.4 °F 32.8 °F 33.8 °F 87% 30.29 in 10.0 mi SE 5.8 mph - N/A   Clear
1:15 AM 37.4 °F 32.1 °F 33.8 °F 87% 30.29 in 10.0 mi SE 6.9 mph - N/A   Clear
1:35 AM 39.2 °F 35.0 °F 33.8 °F 81% 30.30 in 10.0 mi SE 5.8 mph - N/A   Clear
1:55 AM 41.0 °F 36.4 °F 33.8 °F 76% 30.29 in 10.0 mi SE 6.9 mph - N/A   Clear
2:16 AM 39.2 °F 34.2 °F 33.8 °F 81% 30.28 in 10.0 mi SE 6.9 mph - N/A   Clear
2:35 AM 39.2 °F 34.2 °F 33.8 °F 81% 30.28 in 10.0 mi SE 6.9 mph - N/A   Clear
2:55 AM 41.0 °F 37.1 °F 33.8 °F 76% 30.28 in 10.0 mi SSE 5.8 mph - N/A   Clear
3:35 AM 41.0 °F 37.1 °F 35.6 °F 81% 30.28 in 10.0 mi SSE 5.8 mph - N/A   Clear
3:55 AM 41.0 °F 37.1 °F 35.6 °F 81% 30.28 in 10.0 mi SSE 5.8 mph - N/A   Clear
4:16 AM 41.0 °F 37.1 °F 35.6 °F 81% 30.29 in 10.0 mi SE 5.8 mph - N/A   Clear
4:35 AM 39.2 °F 33.0 °F 35.6 °F 87% 30.28 in 10.0 mi SSE 9.2 mph - N/A   Clear
4:55 AM 39.2 °F 35.0 °F 35.6 °F 87% 30.28 in 10.0 mi SSE 5.8 mph - N/A   Clear
5:16 AM 41.0 °F 39.0 °F 35.6 °F 81% 30.28 in 10.0 mi SSE 3.5 mph - N/A   Clear
5:55 AM 41.0 °F 35.2 °F 35.6 °F 81% 30.28 in 10.0 mi SSE 9.2 mph - N/A   Clear
6:15 AM 41.0 °F 36.4 °F 35.6 °F 81% 30.29 in 10.0 mi South 6.9 mph - N/A   Clear
6:35 AM 41.0 °F 36.4 °F 35.6 °F 81% 30.29 in 10.0 mi South 6.9 mph - N/A   Clear
6:56 AM 39.2 °F 34.2 °F 33.8 °F 81% 30.29 in 10.0 mi South 6.9 mph - N/A   Clear
7:35 AM 39.2 °F 35.0 °F 33.8 °F 81% 30.29 in 10.0 mi South 5.8 mph - N/A   Clear
7:56 AM 39.2 °F 35.0 °F 32.0 °F 75% 30.29 in 10.0 mi South 5.8 mph - N/A   Clear
8:55 AM 39.2 °F 33.6 °F 32.0 °F 75% 30.28 in 10.0 mi South 8.1 mph - N/A   Clear
9:15 AM 41.0 °F 36.4 °F 33.8 °F 76% 30.28 in 10.0 mi South 6.9 mph - N/A   Clear
9:35 AM 41.0 °F 36.4 °F 32.0 °F 70% 30.28 in 10.0 mi South 6.9 mph - N/A   Clear
9:56 AM 42.8 °F 38.0 °F 33.8 °F 70% 30.27 in 10.0 mi South 8.1 mph - N/A   Clear
10:15 AM 42.8 °F 37.0 °F 33.8 °F 70% 30.27 in 10.0 mi SSW 10.4 mph - N/A   Clear
10:36 AM 42.8 °F 36.6 °F 33.8 °F 70% 30.28 in 10.0 mi South 11.5 mph 17.3 mph N/A   Clear
10:55 AM 44.6 °F 40.7 °F 33.8 °F 66% 30.27 in 10.0 mi South 6.9 mph 17.3 mph N/A   Clear
11:15 AM 44.6 °F 38.8 °F 33.8 °F 66% 30.27 in 10.0 mi South 11.5 mph 18.4 mph N/A   Clear
11:36 AM 46.4 °F 42.4 °F 33.8 °F 62% 30.27 in 10.0 mi South 8.1 mph 16.1 mph N/A   Clear
11:55 AM 46.4 °F 41.5 °F 33.8 °F 62% 30.27 in 10.0 mi SSW 10.4 mph 17.3 mph N/A   Clear
12:15 PM 46.4 °F 41.9 °F 33.8 °F 62% 30.26 in 10.0 mi SSW 9.2 mph 18.4 mph N/A   Clear
12:36 PM 46.4 °F 42.4 °F 33.8 °F 62% 30.25 in 10.0 mi SSW 8.1 mph 18.4 mph N/A   Clear
12:55 PM 46.4 °F 40.1 °F 33.8 °F 62% 30.24 in 10.0 mi SSW 15.0 mph 20.7 mph N/A   Clear
1:15 PM 48.2 °F - 33.8 °F 58% 30.23 in 10.0 mi SSW 12.7 mph 17.3 mph N/A   Clear
1:55 PM 48.2 °F - 32.0 °F 54% 30.21 in 10.0 mi South 10.4 mph 19.6 mph N/A   Clear
2:16 PM 48.2 °F - 33.8 °F 58% 30.21 in 10.0 mi South 10.4 mph - N/A   Clear
2:35 PM 48.2 °F - 33.8 °F 58% 30.20 in 10.0 mi South 12.7 mph 17.3 mph N/A   Clear
2:55 PM 48.2 °F - 32.0 °F 54% 30.20 in 10.0 mi South 11.5 mph 16.1 mph N/A   Clear
3:16 PM 48.2 °F - 33.8 °F 58% 30.19 in 10.0 mi SSE 8.1 mph 18.4 mph N/A   Clear
3:35 PM 48.2 °F - 33.8 °F 58% 30.18 in 10.0 mi South 9.2 mph - N/A   Clear
3:55 PM 48.2 °F - 33.8 °F 58% 30.18 in 10.0 mi SSW 8.1 mph - N/A   Clear
4:15 PM 48.2 °F - 33.8 °F 58% 30.17 in 10.0 mi South 6.9 mph - N/A   Clear
4:35 PM 48.2 °F - 32.0 °F 54% 30.16 in 10.0 mi SSE 5.8 mph - N/A   Clear
4:56 PM 48.2 °F - 32.0 °F 54% 30.16 in 10.0 mi SSE 6.9 mph - N/A   Clear
5:15 PM 50.0 °F - 32.0 °F 50% 30.15 in 10.0 mi South 6.9 mph - N/A   Clear
5:35 PM 48.2 °F - 32.0 °F 54% 30.15 in 10.0 mi SE 3.5 mph - N/A   Clear
5:55 PM 46.4 °F 45.2 °F 32.0 °F 57% 30.14 in 10.0 mi SE 3.5 mph - N/A   Clear
6:15 PM 44.6 °F - 32.0 °F 61% 30.13 in 10.0 mi Calm Calm - N/A   Clear
6:35 PM 42.8 °F - 32.0 °F 66% 30.13 in 10.0 mi Calm Calm - N/A   Clear
6:55 PM 37.4 °F - 32.0 °F 81% 30.13 in 10.0 mi Calm Calm - N/A   Clear
7:55 PM 33.8 °F 30.8 °F 30.2 °F 87% 30.11 in 10.0 mi ESE 3.5 mph - N/A   Clear
8:16 PM 37.4 °F 33.8 °F 32.0 °F 81% 30.10 in 10.0 mi SE 4.6 mph - N/A   Clear
8:35 PM 42.8 °F 40.1 °F 32.0 °F 66% 30.09 in 10.0 mi SE 4.6 mph - N/A   Clear
8:55 PM 44.6 °F 41.4 °F 32.0 °F 61% 30.09 in 10.0 mi SE 5.8 mph - N/A   Clear
9:16 PM 44.6 °F 41.4 °F 33.8 °F 66% 30.09 in 10.0 mi SSE 5.8 mph - N/A   Clear
9:35 PM 44.6 °F 41.4 °F 33.8 °F 66% 30.09 in 10.0 mi SSE 5.8 mph - N/A   Clear
9:55 PM 46.4 °F 42.9 °F 33.8 °F 62% 30.09 in 10.0 mi South 6.9 mph - N/A   Clear
10:16 PM 46.4 °F 41.9 °F 33.8 °F 62% 30.09 in 10.0 mi SSE 9.2 mph - N/A   Clear
10:35 PM 46.4 °F 42.9 °F 33.8 °F 62% 30.09 in 10.0 mi SSE 6.9 mph - N/A   Clear
10:55 PM 46.4 °F 42.9 °F 33.8 °F 62% 30.08 in 10.0 mi SSE 6.9 mph - N/A   Clear
11:16 PM 46.4 °F 42.9 °F 33.8 °F 62% 30.08 in 10.0 mi SSE 6.9 mph - N/A   Clear
11:35 PM 46.4 °F 41.9 °F 33.8 °F 62% 30.08 in 10.0 mi South 9.2 mph - N/A   Clear
11:56 PM 46.4 °F 41.9 °F 32.0 °F 57% 30.07 in 10.0 mi SSE 9.2 mph - N/A   Clear